Time,TemperatureF,DewpointF,PressureIn,WindDirection,WindDirectionDegrees,WindSpeedMPH,WindSpeedGustMPH,Humidity,HourlyPrecipIn,Conditions,Clouds,dailyrainin,SoftwareType,DateUTC
2014-12-20 00:05:00,58.6,55.4,30.13,NNE,22,3.0,4.0,89,0.00,,,0.00,Wunderground v.1.15,2014-12-20 06:05:00,
2014-12-20 00:10:00,58.5,55.3,30.13,NNE,21,2.0,2.0,89,0.00,,,0.00,Wunderground v.1.15,2014-12-20 06:10:00,
2014-12-20 00:15:00,58.4,55.2,30.13,NNE,22,1.0,2.0,89,0.00,,,0.00,Wunderground v.1.15,2014-12-20 06:15:00,
2014-12-20 00:20:00,58.5,55.3,30.13,NE,45,0.0,0.0,89,0.00,,,0.00,Wunderground v.1.15,2014-12-20 06:20:00,
2014-12-20 00:25:00,58.6,55.4,30.13,NE,46,0.0,0.0,89,0.00,,,0.00,Wunderground v.1.15,2014-12-20 06:25:00,
2014-12-20 00:35:00,58.6,55.4,30.13,NE,45,0.0,0.0,89,0.00,,,0.00,Wunderground v.1.15,2014-12-20 06:35:00,
2014-12-20 00:40:00,58.6,55.4,30.13,NE,45,0.0,0.0,89,0.00,,,0.00,Wunderground v.1.15,2014-12-20 06:40:00,
2014-12-20 00:45:00,58.5,55.6,30.12,NE,45,0.0,0.0,90,0.00,,,0.00,Wunderground v.1.15,2014-12-20 06:45:00,
2014-12-20 00:55:00,58.6,55.7,30.12,NE,45,0.0,0.0,90,0.00,,,0.00,Wunderground v.1.15,2014-12-20 06:55:00,
2014-12-20 01:05:00,58.7,55.8,30.11,NE,45,0.0,0.0,90,0.00,,,0.00,Wunderground v.1.15,2014-12-20 07:05:00,
2014-12-20 01:10:00,58.6,55.7,30.11,NE,46,0.0,0.0,90,0.00,,,0.00,Wunderground v.1.15,2014-12-20 07:10:00,
2014-12-20 01:15:00,58.7,55.8,30.11,NE,46,0.0,0.0,90,0.00,,,0.00,Wunderground v.1.15,2014-12-20 07:15:00,
2014-12-20 01:20:00,58.7,55.8,30.11,NE,45,0.0,0.0,90,0.00,,,0.00,Wunderground v.1.15,2014-12-20 07:20:00,
2014-12-20 01:25:00,58.7,55.8,30.11,NE,45,0.0,0.0,90,0.00,,,0.00,Wunderground v.1.15,2014-12-20 07:25:00,
2014-12-20 01:30:00,58.7,55.8,30.11,NE,45,1.0,2.0,90,0.00,,,0.00,Wunderground v.1.15,2014-12-20 07:30:00,
2014-12-20 01:35:00,58.5,55.6,30.11,NE,45,1.0,2.0,90,0.00,,,0.00,Wunderground v.1.15,2014-12-20 07:35:00,
2014-12-20 01:40:00,58.4,55.5,30.11,NE,45,0.0,0.0,90,0.00,,,0.00,Wunderground v.1.15,2014-12-20 07:40:00,
2014-12-20 01:45:00,58.3,55.4,30.11,NE,46,0.0,0.0,90,0.00,,,0.00,Wunderground v.1.15,2014-12-20 07:45:00,
2014-12-20 01:50:00,58.3,55.4,30.11,NE,45,0.0,0.0,90,0.00,,,0.00,Wunderground v.1.15,2014-12-20 07:50:00,
2014-12-20 02:00:00,58.2,55.6,30.11,NE,45,0.0,0.0,91,0.00,,,0.00,Wunderground v.1.15,2014-12-20 08:00:00,
2014-12-20 02:05:00,58.3,55.7,30.12,NE,45,0.0,0.0,91,0.00,,,0.00,Wunderground v.1.15,2014-12-20 08:05:00,
2014-12-20 02:15:00,58.3,55.7,30.11,NE,46,0.0,0.0,91,0.00,,,0.00,Wunderground v.1.15,2014-12-20 08:15:00,
2014-12-20 02:20:00,58.3,55.7,30.11,NE,46,0.0,0.0,91,0.00,,,0.00,Wunderground v.1.15,2014-12-20 08:20:00,
2014-12-20 02:25:00,58.3,55.7,30.11,NE,45,0.0,0.0,91,0.00,,,0.00,Wunderground v.1.15,2014-12-20 08:25:00,
2014-12-20 02:30:00,58.3,55.7,30.11,NE,45,0.0,0.0,91,0.00,,,0.00,Wunderground v.1.15,2014-12-20 08:30:00,
2014-12-20 02:35:00,58.3,55.7,30.11,NE,45,0.0,0.0,91,0.00,,,0.00,Wunderground v.1.15,2014-12-20 08:35:00,
2014-12-20 02:45:00,58.4,55.8,30.11,NE,45,0.0,0.0,91,0.00,,,0.00,Wunderground v.1.15,2014-12-20 08:45:00,
2014-12-20 02:50:00,58.4,55.8,30.11,NE,45,0.0,0.0,91,0.00,,,0.00,Wunderground v.1.15,2014-12-20 08:50:00,
2014-12-20 02:55:00,58.5,55.9,30.11,NE,45,0.0,0.0,91,0.00,,,0.00,Wunderground v.1.15,2014-12-20 08:55:00,
2014-12-20 03:05:00,58.6,56.0,30.11,NE,45,0.0,0.0,91,0.00,,,0.00,Wunderground v.1.15,2014-12-20 09:05:00,
2014-12-20 03:15:00,58.5,56.2,30.11,NE,45,0.0,4.0,92,0.00,,,0.00,Wunderground v.1.15,2014-12-20 09:15:00,
2014-12-20 03:25:00,58.7,56.4,30.11,NE,45,1.0,1.0,92,0.00,,,0.00,Wunderground v.1.15,2014-12-20 09:25:00,
2014-12-20 03:30:00,58.8,56.5,30.11,NE,49,0.0,2.0,92,0.00,,,0.00,Wunderground v.1.15,2014-12-20 09:30:00,
2014-12-20 03:35:00,58.7,56.4,30.11,ENE,68,1.0,4.0,92,0.00,,,0.00,Wunderground v.1.15,2014-12-20 09:35:00,
2014-12-20 03:40:00,58.7,56.4,30.11,ENE,72,2.0,2.0,92,0.00,,,0.00,Wunderground v.1.15,2014-12-20 09:40:00,
2014-12-20 03:50:00,58.7,56.4,30.12,East,84,2.0,5.0,92,0.00,,,0.00,Wunderground v.1.15,2014-12-20 09:50:00,
2014-12-20 03:55:00,58.6,56.3,30.11,East,85,3.0,5.0,92,0.00,,,0.00,Wunderground v.1.15,2014-12-20 09:55:00,
2014-12-20 04:00:00,58.6,56.3,30.11,SE,144,3.0,6.0,92,0.00,,,0.00,Wunderground v.1.15,2014-12-20 10:00:00,
2014-12-20 04:10:00,57.8,55.5,30.11,SE,145,6.0,6.0,92,0.00,,,0.00,Wunderground v.1.15,2014-12-20 10:10:00,
2014-12-20 04:15:00,57.8,55.5,30.11,SSE,161,5.0,6.0,92,0.00,,,0.00,Wunderground v.1.15,2014-12-20 10:15:00,
2014-12-20 04:20:00,57.7,55.4,30.11,SE,146,4.0,5.0,92,0.00,,,0.00,Wunderground v.1.15,2014-12-20 10:20:00,
2014-12-20 04:25:00,57.5,55.2,30.11,SSE,163,3.0,5.0,92,0.00,,,0.00,Wunderground v.1.15,2014-12-20 10:25:00,
2014-12-20 04:35:00,57.6,55.3,30.11,SSE,157,2.0,2.0,92,0.00,,,0.00,Wunderground v.1.15,2014-12-20 10:35:00,
2014-12-20 04:40:00,57.7,55.4,30.12,SSE,157,1.0,1.0,92,0.00,,,0.00,Wunderground v.1.15,2014-12-20 10:40:00,
2014-12-20 04:45:00,57.7,55.4,30.11,SSE,156,1.0,1.0,92,0.00,,,0.00,Wunderground v.1.15,2014-12-20 10:45:00,
2014-12-20 04:55:00,57.4,55.1,30.11,SSE,155,2.0,3.0,92,0.00,,,0.00,Wunderground v.1.15,2014-12-20 10:55:00,
2014-12-20 05:00:00,57.2,54.9,30.11,SE,145,4.0,5.0,92,0.00,,,0.00,Wunderground v.1.15,2014-12-20 11:00:00,
2014-12-20 05:05:00,57.1,54.8,30.11,SSE,150,5.0,5.0,92,0.00,,,0.00,Wunderground v.1.15,2014-12-20 11:05:00,
2014-12-20 05:10:00,57.0,54.7,30.11,SSE,154,4.0,4.0,92,0.00,,,0.00,Wunderground v.1.15,2014-12-20 11:10:00,
2014-12-20 05:15:00,57.1,54.8,30.11,SSE,153,3.0,4.0,92,0.00,,,0.00,Wunderground v.1.15,2014-12-20 11:15:00,
2014-12-20 05:25:00,57.0,54.7,30.11,SSE,153,2.0,4.0,92,0.00,,,0.00,Wunderground v.1.15,2014-12-20 11:25:00,
2014-12-20 05:30:00,56.8,54.5,30.11,SE,142,5.0,5.0,92,0.00,,,0.00,Wunderground v.1.15,2014-12-20 11:30:00,
2014-12-20 05:40:00,56.9,54.6,30.11,SE,142,3.0,3.0,92,0.00,,,0.00,Wunderground v.1.15,2014-12-20 11:40:00,
2014-12-20 05:50:00,57.0,54.7,30.12,SE,140,2.0,2.0,92,0.00,,,0.00,Wunderground v.1.15,2014-12-20 11:50:00,
2014-12-20 06:00:00,56.9,54.3,30.13,SSE,153,3.0,3.0,91,0.00,,,0.00,Wunderground v.1.15,2014-12-20 12:00:00,
2014-12-20 06:05:00,56.9,54.3,30.13,SE,130,3.0,5.0,91,0.00,,,0.00,Wunderground v.1.15,2014-12-20 12:05:00,
2014-12-20 06:10:00,56.9,54.3,30.13,SE,138,3.0,3.0,91,0.00,,,0.00,Wunderground v.1.15,2014-12-20 12:10:00,
2014-12-20 06:15:00,56.9,54.3,30.13,SSE,158,3.0,3.0,91,0.00,,,0.00,Wunderground v.1.15,2014-12-20 12:15:00,
2014-12-20 06:20:00,56.9,54.3,30.13,SE,137,3.0,3.0,91,0.00,,,0.00,Wunderground v.1.15,2014-12-20 12:20:00,
2014-12-20 06:30:00,56.9,54.3,30.14,SSE,148,4.0,6.0,91,0.00,,,0.00,Wunderground v.1.15,2014-12-20 12:30:00,
2014-12-20 06:40:00,56.9,54.3,30.14,SE,145,5.0,5.0,91,0.00,,,0.00,Wunderground v.1.15,2014-12-20 12:40:00,
2014-12-20 06:45:00,56.9,54.0,30.14,SSE,148,5.0,5.0,90,0.00,,,0.00,Wunderground v.1.15,2014-12-20 12:45:00,
2014-12-20 06:50:00,56.9,54.0,30.14,SSE,155,4.0,4.0,90,0.00,,,0.00,Wunderground v.1.15,2014-12-20 12:50:00,
2014-12-20 06:55:00,57.0,54.1,30.14,SSE,155,3.0,4.0,90,0.00,,,0.00,Wunderground v.1.15,2014-12-20 12:55:00,
2014-12-20 07:00:00,57.1,54.2,30.14,SE,137,3.0,3.0,90,0.00,,,0.00,Wunderground v.1.15,2014-12-20 13:00:00,
2014-12-20 07:05:00,57.1,54.2,30.14,SE,144,4.0,4.0,90,0.00,,,0.00,Wunderground v.1.15,2014-12-20 13:05:00,
2014-12-20 07:15:00,56.9,54.0,30.14,SSE,149,6.0,7.0,90,0.00,,,0.00,Wunderground v.1.15,2014-12-20 13:15:00,
2014-12-20 07:25:00,56.9,54.0,30.15,SE,145,5.0,6.0,90,0.00,,,0.00,Wunderground v.1.15,2014-12-20 13:25:00,
2014-12-20 07:35:00,56.9,54.0,30.16,SSE,153,5.0,5.0,90,0.00,,,0.00,Wunderground v.1.15,2014-12-20 13:35:00,
2014-12-20 07:40:00,56.9,54.0,30.16,SSE,148,5.0,5.0,90,0.00,,,0.00,Wunderground v.1.15,2014-12-20 13:40:00,
2014-12-20 07:45:00,56.9,54.0,30.16,SE,140,3.0,5.0,90,0.00,,,0.00,Wunderground v.1.15,2014-12-20 13:45:00,
2014-12-20 07:50:00,56.8,53.9,30.16,SE,145,4.0,10.0,90,0.00,,,0.00,Wunderground v.1.15,2014-12-20 13:50:00,
2014-12-20 08:00:00,56.9,54.0,30.16,SE,146,4.0,4.0,90,0.00,,,0.00,Wunderground v.1.15,2014-12-20 14:00:00,
2014-12-20 08:10:00,56.9,54.0,30.16,SE,145,4.0,4.0,90,0.00,,,0.00,Wunderground v.1.15,2014-12-20 14:10:00,
2014-12-20 08:20:00,57.0,54.1,30.17,SE,130,2.0,2.0,90,0.00,,,0.00,Wunderground v.1.15,2014-12-20 14:20:00,
2014-12-20 08:30:00,56.9,54.0,30.17,SE,134,3.0,6.0,90,0.00,,,0.00,Wunderground v.1.15,2014-12-20 14:30:00,
2014-12-20 08:40:00,56.8,53.9,30.17,SE,134,3.0,3.0,90,0.00,,,0.00,Wunderground v.1.15,2014-12-20 14:40:00,
2014-12-20 08:50:00,56.7,53.8,30.18,SE,141,3.0,3.0,90,0.00,,,0.00,Wunderground v.1.15,2014-12-20 14:50:00,
2014-12-20 08:55:00,56.7,53.8,30.18,SE,138,3.0,3.0,90,0.00,,,0.00,Wunderground v.1.15,2014-12-20 14:55:00,
2014-12-20 09:00:00,56.6,53.7,30.18,SSE,148,4.0,6.0,90,0.00,,,0.00,Wunderground v.1.15,2014-12-20 15:00:00,
2014-12-20 09:10:00,56.4,53.5,30.18,SSE,150,5.0,5.0,90,0.00,,,0.00,Wunderground v.1.15,2014-12-20 15:10:00,
2014-12-20 09:20:00,56.3,53.7,30.18,SSE,154,5.0,6.0,91,0.00,,,0.00,Wunderground v.1.15,2014-12-20 15:20:00,
2014-12-20 09:25:00,56.4,53.8,30.19,SSE,155,5.0,7.0,91,0.00,,,0.00,Wunderground v.1.15,2014-12-20 15:25:00,
2014-12-20 09:35:00,56.2,53.6,30.19,SSE,153,5.0,10.0,91,0.00,,,0.00,Wunderground v.1.15,2014-12-20 15:35:00,
2014-12-20 09:40:00,56.2,53.6,30.19,SE,131,6.0,6.0,91,0.00,,,0.00,Wunderground v.1.15,2014-12-20 15:40:00,
2014-12-20 09:45:00,56.3,53.7,30.19,SE,142,4.0,6.0,91,0.00,,,0.00,Wunderground v.1.15,2014-12-20 15:45:00,
2014-12-20 09:50:00,56.3,53.7,30.19,SSE,167,4.0,4.0,91,0.00,,,0.00,Wunderground v.1.15,2014-12-20 15:50:00,
2014-12-20 09:55:00,56.4,53.8,30.19,SSE,153,3.0,4.0,91,0.00,,,0.00,Wunderground v.1.15,2014-12-20 15:55:00,
2014-12-20 10:00:00,56.3,53.7,30.19,SE,132,4.0,4.0,91,0.00,,,0.00,Wunderground v.1.15,2014-12-20 16:00:00,
2014-12-20 10:05:00,56.3,53.7,30.19,SE,129,4.0,4.0,91,0.00,,,0.00,Wunderground v.1.15,2014-12-20 16:05:00,
2014-12-20 10:10:00,56.1,53.8,30.19,ESE,123,4.0,4.0,92,0.00,,,0.00,Wunderground v.1.15,2014-12-20 16:10:00,
2014-12-20 10:20:00,55.8,53.2,30.19,SE,126,5.0,5.0,91,0.00,,,0.00,Wunderground v.1.15,2014-12-20 16:20:00,
2014-12-20 10:25:00,55.8,53.5,30.19,ESE,115,5.0,5.0,92,0.00,,,0.00,Wunderground v.1.15,2014-12-20 16:25:00,
2014-12-20 10:30:00,55.6,53.3,30.19,SE,136,4.0,4.0,92,0.00,,,0.00,Wunderground v.1.15,2014-12-20 16:30:00,
2014-12-20 10:35:00,55.5,53.2,30.19,SE,132,5.0,5.0,92,0.00,,,0.00,Wunderground v.1.15,2014-12-20 16:35:00,
2014-12-20 10:40:00,55.5,53.2,30.19,ESE,105,6.0,7.0,92,0.00,,,0.00,Wunderground v.1.15,2014-12-20 16:40:00,
2014-12-20 10:45:00,55.4,53.1,30.19,ESE,105,5.0,7.0,92,0.00,,,0.00,Wunderground v.1.15,2014-12-20 16:45:00,
2014-12-20 10:55:00,55.3,53.0,30.19,SSE,157,6.0,10.0,92,0.00,,,0.00,Wunderground v.1.15,2014-12-20 16:55:00,
2014-12-20 11:00:00,55.4,53.1,30.19,SE,130,4.0,5.0,92,0.00,,,0.00,Wunderground v.1.15,2014-12-20 17:00:00,
2014-12-20 11:10:00,55.2,52.9,30.19,ESE,118,5.0,5.0,92,0.00,,,0.00,Wunderground v.1.15,2014-12-20 17:10:00,
2014-12-20 11:20:00,55.2,52.9,30.19,SE,128,4.0,4.0,92,0.00,,,0.00,Wunderground v.1.15,2014-12-20 17:20:00,
2014-12-20 11:30:00,55.2,52.9,30.19,SSE,153,4.0,5.0,92,0.00,,,0.00,Wunderground v.1.15,2014-12-20 17:30:00,
2014-12-20 11:35:00,55.1,52.8,30.18,ESE,115,4.0,5.0,92,0.00,,,0.00,Wunderground v.1.15,2014-12-20 17:35:00,
2014-12-20 11:40:00,55.2,52.9,30.18,SE,128,3.0,4.0,92,0.00,,,0.00,Wunderground v.1.15,2014-12-20 17:40:00,
2014-12-20 11:45:00,55.1,52.8,30.18,ESE,119,3.0,4.0,92,0.00,,,0.00,Wunderground v.1.15,2014-12-20 17:45:00,
2014-12-20 11:55:00,55.0,52.7,30.18,SE,126,4.0,5.0,92,0.00,,,0.00,Wunderground v.1.15,2014-12-20 17:55:00,
2014-12-20 12:05:00,55.0,52.7,30.18,SE,126,4.0,5.0,92,0.00,,,0.00,Wunderground v.1.15,2014-12-20 18:05:00,
2014-12-20 12:10:00,54.9,52.6,30.17,SE,134,4.0,6.0,92,0.00,,,0.00,Wunderground v.1.15,2014-12-20 18:10:00,
2014-12-20 12:15:00,54.9,52.6,30.17,ESE,114,5.0,6.0,92,0.00,,,0.00,Wunderground v.1.15,2014-12-20 18:15:00,
2014-12-20 12:20:00,55.1,53.1,30.17,SSE,162,4.0,5.0,93,0.00,,,0.00,Wunderground v.1.15,2014-12-20 18:20:00,
2014-12-20 12:30:00,55.0,52.7,30.16,ESE,123,4.0,5.0,92,0.00,,,0.00,Wunderground v.1.15,2014-12-20 18:30:00,
2014-12-20 12:35:00,55.1,53.1,30.16,SE,133,5.0,5.0,93,0.00,,,0.00,Wunderground v.1.15,2014-12-20 18:35:00,
2014-12-20 12:40:00,55.1,53.1,30.16,SE,130,4.0,8.0,93,0.00,,,0.00,Wunderground v.1.15,2014-12-20 18:40:00,
2014-12-20 12:50:00,55.3,53.3,30.15,SE,132,4.0,4.0,93,0.00,,,0.00,Wunderground v.1.15,2014-12-20 18:50:00,
2014-12-20 12:55:00,55.4,53.4,30.15,ESE,119,4.0,4.0,93,0.00,,,0.00,Wunderground v.1.15,2014-12-20 18:55:00,
2014-12-20 13:05:00,55.2,53.2,30.14,ESE,118,5.0,6.0,93,0.00,,,0.00,Wunderground v.1.15,2014-12-20 19:05:00,
2014-12-20 13:15:00,55.2,53.2,30.13,ESE,103,4.0,5.0,93,0.00,,,0.00,Wunderground v.1.15,2014-12-20 19:15:00,
2014-12-20 13:20:00,55.4,53.4,30.13,SSE,150,4.0,5.0,93,0.00,,,0.00,Wunderground v.1.15,2014-12-20 19:20:00,
2014-12-20 13:25:00,55.5,53.5,30.13,SE,142,4.0,5.0,93,0.00,,,0.00,Wunderground v.1.15,2014-12-20 19:25:00,
2014-12-20 13:30:00,55.3,53.3,30.13,SSE,147,4.0,6.0,93,0.00,,,0.00,Wunderground v.1.15,2014-12-20 19:30:00,
2014-12-20 13:35:00,55.3,53.3,30.12,SSE,150,5.0,8.0,93,0.00,,,0.00,Wunderground v.1.15,2014-12-20 19:35:00,
2014-12-20 13:45:00,55.6,53.6,30.12,SE,137,5.0,7.0,93,0.00,,,0.00,Wunderground v.1.15,2014-12-20 19:45:00,
2014-12-20 13:55:00,55.5,53.2,30.11,SE,134,7.0,7.0,92,0.00,,,0.00,Wunderground v.1.15,2014-12-20 19:55:00,
2014-12-20 14:05:00,55.5,53.2,30.11,SE,138,7.0,8.0,92,0.00,,,0.00,Wunderground v.1.15,2014-12-20 20:05:00,
2014-12-20 14:10:00,55.5,53.2,30.11,ESE,118,6.0,7.0,92,0.00,,,0.00,Wunderground v.1.15,2014-12-20 20:10:00,
2014-12-20 14:15:00,55.6,53.3,30.11,SSE,155,6.0,7.0,92,0.00,,,0.00,Wunderground v.1.15,2014-12-20 20:15:00,
2014-12-20 14:25:00,55.8,53.5,30.10,SSE,157,6.0,7.0,92,0.00,,,0.00,Wunderground v.1.15,2014-12-20 20:25:00,
2014-12-20 14:30:00,55.7,53.4,30.10,SSE,152,7.0,9.0,92,0.00,,,0.00,Wunderground v.1.15,2014-12-20 20:30:00,
2014-12-20 14:40:00,55.7,53.1,30.10,SE,127,8.0,8.0,91,0.00,,,0.00,Wunderground v.1.15,2014-12-20 20:40:00,
2014-12-20 14:45:00,55.7,53.1,30.10,SSE,157,7.0,10.0,91,0.00,,,0.00,Wunderground v.1.15,2014-12-20 20:45:00,
2014-12-20 14:50:00,55.6,53.0,30.10,South,176,8.0,8.0,91,0.00,,,0.00,Wunderground v.1.15,2014-12-20 20:50:00,
2014-12-20 14:55:00,55.8,53.2,30.10,SSE,150,8.0,8.0,91,0.00,,,0.00,Wunderground v.1.15,2014-12-20 20:55:00,
2014-12-20 15:00:00,55.8,53.2,30.10,SE,137,7.0,13.0,91,0.00,,,0.00,Wunderground v.1.15,2014-12-20 21:00:00,
2014-12-20 15:10:00,55.8,53.2,30.10,SSE,148,8.0,10.0,91,0.00,,,0.00,Wunderground v.1.15,2014-12-20 21:10:00,
2014-12-20 15:15:00,55.7,53.1,30.10,ESE,123,7.0,10.0,91,0.00,,,0.00,Wunderground v.1.15,2014-12-20 21:15:00,
2014-12-20 15:25:00,55.6,53.0,30.10,SSE,150,7.0,10.0,91,0.00,,,0.00,Wunderground v.1.15,2014-12-20 21:25:00,
2014-12-20 15:30:00,55.7,53.1,30.10,ESE,109,6.0,6.0,91,0.00,,,0.00,Wunderground v.1.15,2014-12-20 21:30:00,
2014-12-20 15:35:00,55.9,53.3,30.10,SSE,150,5.0,6.0,91,0.00,,,0.00,Wunderground v.1.15,2014-12-20 21:35:00,
2014-12-20 15:40:00,56.0,53.4,30.10,SE,127,5.0,5.0,91,0.00,,,0.00,Wunderground v.1.15,2014-12-20 21:40:00,
2014-12-20 15:50:00,56.0,53.4,30.10,SE,142,5.0,5.0,91,0.00,,,0.00,Wunderground v.1.15,2014-12-20 21:50:00,
2014-12-20 15:55:00,55.8,52.9,30.10,ESE,106,6.0,6.0,90,0.00,,,0.00,Wunderground v.1.15,2014-12-20 21:55:00,
2014-12-20 16:05:00,55.8,52.9,30.09,SE,140,7.0,11.0,90,0.00,,,0.00,Wunderground v.1.15,2014-12-20 22:05:00,
2014-12-20 16:10:00,55.8,52.9,30.09,SE,138,6.0,6.0,90,0.00,,,0.00,Wunderground v.1.15,2014-12-20 22:10:00,
2014-12-20 16:20:00,56.0,53.4,30.10,SSE,155,4.0,4.0,91,0.00,,,0.00,Wunderground v.1.15,2014-12-20 22:20:00,
2014-12-20 16:25:00,56.0,53.4,30.10,SE,125,4.0,5.0,91,0.00,,,0.00,Wunderground v.1.15,2014-12-20 22:25:00,
2014-12-20 16:30:00,55.7,52.8,30.10,SE,144,5.0,6.0,90,0.00,,,0.00,Wunderground v.1.15,2014-12-20 22:30:00,
2014-12-20 16:35:00,55.6,52.7,30.10,SE,128,5.0,6.0,90,0.00,,,0.00,Wunderground v.1.15,2014-12-20 22:35:00,
2014-12-20 16:40:00,55.6,52.7,30.10,SE,132,6.0,6.0,90,0.00,,,0.00,Wunderground v.1.15,2014-12-20 22:40:00,
2014-12-20 16:45:00,55.6,52.7,30.10,SSE,148,6.0,8.0,90,0.00,,,0.00,Wunderground v.1.15,2014-12-20 22:45:00,
2014-12-20 16:50:00,55.7,52.8,30.10,SSE,157,5.0,6.0,90,0.00,,,0.00,Wunderground v.1.15,2014-12-20 22:50:00,
2014-12-20 16:55:00,55.8,52.9,30.10,SSE,152,3.0,10.0,90,0.00,,,0.00,Wunderground v.1.15,2014-12-20 22:55:00,
2014-12-20 17:00:00,55.6,52.7,30.10,SSE,148,5.0,5.0,90,0.00,,,0.00,Wunderground v.1.15,2014-12-20 23:00:00,
2014-12-20 17:10:00,55.8,52.9,30.10,SSE,155,4.0,4.0,90,0.00,,,0.00,Wunderground v.1.15,2014-12-20 23:10:00,
2014-12-20 17:20:00,55.8,52.9,30.10,SE,143,5.0,7.0,90,0.00,,,0.00,Wunderground v.1.15,2014-12-20 23:20:00,
2014-12-20 17:30:00,55.6,52.7,30.11,SE,135,6.0,7.0,90,0.00,,,0.00,Wunderground v.1.15,2014-12-20 23:30:00,
2014-12-20 17:35:00,55.6,52.7,30.10,SE,146,7.0,7.0,90,0.00,,,0.00,Wunderground v.1.15,2014-12-20 23:35:00,
2014-12-20 17:45:00,55.6,52.7,30.10,SE,137,5.0,6.0,90,0.00,,,0.00,Wunderground v.1.15,2014-12-20 23:45:00,
2014-12-20 17:50:00,55.5,52.6,30.11,SSE,153,6.0,6.0,90,0.00,,,0.00,Wunderground v.1.15,2014-12-20 23:50:00,
2014-12-20 17:55:00,55.5,52.9,30.11,SSE,153,7.0,7.0,91,0.00,,,0.00,Wunderground v.1.15,2014-12-20 23:55:00,
2014-12-20 18:05:00,55.5,52.9,30.10,SE,132,3.0,6.0,91,0.00,,,0.00,Wunderground v.1.15,2014-12-21 00:05:00,
2014-12-20 18:10:00,55.4,52.8,30.10,SSE,148,4.0,4.0,91,0.00,,,0.00,Wunderground v.1.15,2014-12-21 00:10:00,
2014-12-20 18:15:00,55.3,52.7,30.11,ESE,109,4.0,6.0,91,0.00,,,0.00,Wunderground v.1.15,2014-12-21 00:15:00,
2014-12-20 18:20:00,55.3,52.7,30.11,SE,146,4.0,4.0,91,0.00,,,0.00,Wunderground v.1.15,2014-12-21 00:20:00,
2014-12-20 18:25:00,55.2,52.6,30.11,SSE,153,4.0,7.0,91,0.00,,,0.00,Wunderground v.1.15,2014-12-21 00:25:00,
2014-12-20 18:30:00,55.2,52.6,30.11,SE,127,5.0,6.0,91,0.00,,,0.00,Wunderground v.1.15,2014-12-21 00:30:00,
2014-12-20 18:35:00,55.2,52.6,30.11,SE,130,4.0,6.0,91,0.00,,,0.00,Wunderground v.1.15,2014-12-21 00:35:00,
2014-12-20 18:40:00,55.1,52.5,30.11,ESE,119,5.0,7.0,91,0.00,,,0.00,Wunderground v.1.15,2014-12-21 00:40:00,
2014-12-20 18:50:00,55.1,52.5,30.11,SSE,150,4.0,4.0,91,0.00,,,0.00,Wunderground v.1.15,2014-12-21 00:50:00,
2014-12-20 18:55:00,55.0,52.4,30.11,ESE,107,4.0,8.0,91,0.00,,,0.00,Wunderground v.1.15,2014-12-21 00:55:00,
2014-12-20 19:00:00,54.9,52.3,30.12,ESE,117,5.0,5.0,91,0.00,,,0.00,Wunderground v.1.15,2014-12-21 01:00:00,
2014-12-20 19:05:00,54.8,52.5,30.12,SSE,156,6.0,8.0,92,0.00,,,0.00,Wunderground v.1.15,2014-12-21 01:05:00,
2014-12-20 19:15:00,54.6,52.3,30.13,SSE,152,6.0,12.0,92,0.00,,,0.00,Wunderground v.1.15,2014-12-21 01:15:00,
2014-12-20 19:25:00,54.6,52.3,30.13,ESE,123,5.0,6.0,92,0.00,,,0.00,Wunderground v.1.15,2014-12-21 01:25:00,
2014-12-20 19:30:00,54.4,52.1,30.12,SE,135,5.0,5.0,92,0.00,,,0.00,Wunderground v.1.15,2014-12-21 01:30:00,
2014-12-20 19:35:00,54.4,52.1,30.13,SE,137,6.0,11.0,92,0.00,,,0.00,Wunderground v.1.15,2014-12-21 01:35:00,
2014-12-20 19:40:00,54.3,52.0,30.13,SE,126,7.0,8.0,92,0.00,,,0.00,Wunderground v.1.15,2014-12-21 01:40:00,
2014-12-20 19:45:00,54.3,52.0,30.13,SE,135,7.0,8.0,92,0.00,,,0.00,Wunderground v.1.15,2014-12-21 01:45:00,
2014-12-20 19:50:00,54.3,52.0,30.13,South,181,7.0,7.0,92,0.00,,,0.00,Wunderground v.1.15,2014-12-21 01:50:00,
2014-12-20 19:55:00,54.3,52.0,30.13,SSE,150,7.0,7.0,92,0.00,,,0.00,Wunderground v.1.15,2014-12-21 01:55:00,
2014-12-20 20:00:00,54.3,52.0,30.13,SSE,150,5.0,5.0,92,0.00,,,0.00,Wunderground v.1.15,2014-12-21 02:00:00,
2014-12-20 20:10:00,54.3,52.0,30.13,ESE,122,3.0,3.0,92,0.00,,,0.00,Wunderground v.1.15,2014-12-21 02:10:00,
2014-12-20 20:15:00,54.3,52.0,30.13,SSE,151,3.0,3.0,92,0.00,,,0.00,Wunderground v.1.15,2014-12-21 02:15:00,
2014-12-20 20:20:00,54.3,52.0,30.13,SE,129,3.0,3.0,92,0.00,,,0.00,Wunderground v.1.15,2014-12-21 02:20:00,
2014-12-20 20:25:00,54.2,51.9,30.14,SE,138,4.0,4.0,92,0.00,,,0.00,Wunderground v.1.15,2014-12-21 02:25:00,
2014-12-20 20:30:00,54.0,51.7,30.14,SE,133,5.0,5.0,92,0.00,,,0.00,Wunderground v.1.15,2014-12-21 02:30:00,
2014-12-20 20:40:00,54.0,52.0,30.14,East,95,5.0,6.0,93,0.00,,,0.00,Wunderground v.1.15,2014-12-21 02:40:00,
2014-12-20 20:50:00,54.0,52.0,30.14,East,95,4.0,6.0,93,0.00,,,0.00,Wunderground v.1.15,2014-12-21 02:50:00,
2014-12-20 20:55:00,54.0,52.0,30.13,ESE,121,5.0,6.0,93,0.00,,,0.00,Wunderground v.1.15,2014-12-21 02:55:00,
2014-12-20 21:05:00,54.1,52.1,30.14,SE,144,3.0,5.0,93,0.00,,,0.00,Wunderground v.1.15,2014-12-21 03:05:00,
2014-12-20 21:10:00,54.0,52.0,30.13,ESE,119,3.0,5.0,93,0.00,,,0.00,Wunderground v.1.15,2014-12-21 03:10:00,
2014-12-20 21:20:00,54.0,52.0,30.14,ESE,121,3.0,8.0,93,0.00,,,0.00,Wunderground v.1.15,2014-12-21 03:20:00,
2014-12-20 21:25:00,54.0,51.7,30.13,SE,133,4.0,8.0,92,0.00,,,0.00,Wunderground v.1.15,2014-12-21 03:25:00,
2014-12-20 21:30:00,54.0,51.7,30.13,SE,140,4.0,4.0,92,0.00,,,0.00,Wunderground v.1.15,2014-12-21 03:30:00,
2014-12-20 21:35:00,54.0,51.7,30.14,SSE,156,3.0,8.0,92,0.00,,,0.00,Wunderground v.1.15,2014-12-21 03:35:00,
2014-12-20 21:40:00,54.0,51.7,30.13,SSE,148,4.0,4.0,92,0.00,,,0.00,Wunderground v.1.15,2014-12-21 03:40:00,
2014-12-20 21:45:00,54.0,51.7,30.13,SE,145,4.0,4.0,92,0.00,,,0.00,Wunderground v.1.15,2014-12-21 03:45:00,
2014-12-20 21:50:00,54.0,51.7,30.13,SSE,156,4.0,4.0,92,0.00,,,0.00,Wunderground v.1.15,2014-12-21 03:50:00,
2014-12-20 21:55:00,54.0,51.7,30.14,SE,144,3.0,4.0,92,0.00,,,0.00,Wunderground v.1.15,2014-12-21 03:55:00,
2014-12-20 22:05:00,54.0,51.7,30.14,SE,130,3.0,3.0,92,0.00,,,0.00,Wunderground v.1.15,2014-12-21 04:05:00,
2014-12-20 22:10:00,54.0,51.7,30.14,SE,137,3.0,3.0,92,0.00,,,0.00,Wunderground v.1.15,2014-12-21 04:10:00,
2014-12-20 22:20:00,54.0,52.0,30.15,SE,138,3.0,8.0,93,0.00,,,0.00,Wunderground v.1.15,2014-12-21 04:20:00,
2014-12-20 22:25:00,53.9,51.9,30.15,SE,133,3.0,8.0,93,0.00,,,0.00,Wunderground v.1.15,2014-12-21 04:25:00,
2014-12-20 22:35:00,53.9,51.9,30.15,SE,125,4.0,5.0,93,0.00,,,0.00,Wunderground v.1.15,2014-12-21 04:35:00,
2014-12-20 22:45:00,53.7,51.4,30.14,SE,129,5.0,6.0,92,0.00,,,0.00,Wunderground v.1.15,2014-12-21 04:45:00,
2014-12-20 22:50:00,53.6,51.3,30.15,SE,140,5.0,5.0,92,0.00,,,0.00,Wunderground v.1.15,2014-12-21 04:50:00,
2014-12-20 23:00:00,53.6,51.6,30.14,SE,128,4.0,4.0,93,0.00,,,0.00,Wunderground v.1.15,2014-12-21 05:00:00,
2014-12-20 23:10:00,53.5,51.5,30.15,ESE,122,3.0,3.0,93,0.00,,,0.00,Wunderground v.1.15,2014-12-21 05:10:00,
2014-12-20 23:20:00,53.4,51.4,30.15,SE,142,3.0,4.0,93,0.00,,,0.00,Wunderground v.1.15,2014-12-21 05:20:00,
2014-12-20 23:30:00,53.4,51.4,30.15,SE,146,4.0,4.0,93,0.00,,,0.00,Wunderground v.1.15,2014-12-21 05:30:00,
2014-12-20 23:35:00,53.4,51.4,30.15,SE,146,3.0,4.0,93,0.00,,,0.00,Wunderground v.1.15,2014-12-21 05:35:00,
2014-12-20 23:40:00,53.4,51.4,30.15,SE,129,2.0,6.0,93,0.00,,,0.00,Wunderground v.1.15,2014-12-21 05:40:00,